Hourly Data Report for August 24, 2003

SHERBROOKE A
QUEBEC

45°26'00.000" N
71°41'00.000" W
241.40 m
7028124
71610
YSC

Download Data

Hourly Data (August 2003)
Hourly Data Report for August 24, 2003
TIME
LST
Temp Definition
°C
Dew Point Definition
°C
Rel Hum Definition
%
Precip. Amount Definition
mm

Wind Dir Definition
10's deg

Wind Spd Definition
km/h
Visibility Definition
km
Stn Press Definition
kPa
Hmdx Definition


Wind Chill Definition


Weather Definition


00:00 7.3 6.0 91   22 7 15.0 98.48      
01:00 6.6 4.2 85   26 4 15.0 98.48      
02:00 6.9 3.5 79   23 7 15.0 98.49      
03:00 5.7 3.1 83   25 7 15.0 98.52      
04:00 4.1 2.1 87   23 7 15.0 98.56      
05:00 4.9 2.2 83   24 11 15.0 98.62      
06:00 6.6 2.9 77   26 13 15.0 98.64      
07:00 9.0 3.4 68   26 15 24.1 98.71     Mainly Clear
08:00 10.8 2.7 57   30 20 24.1 98.71     Mainly Clear
09:00 12.1 2.7 53   31 20 24.1 98.70     Mainly Clear
10:00 13.0 2.9 50   29 20 24.1 98.69     Mainly Clear
11:00 15.0 4.2 48   29 24 24.1 98.62     Clear
12:00 16.4 4.3 45   28 22 24.1 98.55     Clear
13:00 16.9 2.8 39   30 24 24.1 98.55     Clear
14:00 17.6 1.5 34   28 32 24.1 98.49     Mainly Clear
15:00 18.4 2.0 33   30 17 24.1 98.45     Mainly Clear
16:00 19.0 4.2 38   28 20 24.1 98.43     Mainly Clear
17:00 18.8 4.6 39   30 17 15.0 98.43      
18:00 16.2 5.0 47   29 9 15.0 98.44      
19:00 14.6 6.3 57   26 11 15.0 98.44      
20:00 11.3 7.1 75   28 7 15.0 98.48      
21:00 11.2 8.0 81   27 7 15.0 98.48      
22:00 11.2 7.9 80   26 6 15.0 98.48      
23:00 12.7 7.9 73   22 4 15.0 98.50      

Notes on Data Quality.

Legend

  • E = Estimated
  • M = Missing
  • NA = Not Available*
  • [empty] = Indicates an unobserved value
Date modified: